LAN064 SCTE-SCEL

Flight info

Callsign LAN064
Flight time 1h 7m
Altitude 36000
Route ANROS6A ANROS UQ802 EROLO EROLO2D
Aircraft A321/M-SDE3FGHIRWY/LB1

Departure

Time 2026-05-08 01:18
Airport El Tepual International Airport (SCTE)

Arrival

Time 2026-05-08 02:25
Airport Comodoro Arturo Merino Benítez International Airport (SCEL)
Time Latitude Longitude Altitude Speed Heading
2026-05-08 01:11 -41.43354 -73.09597 303 ft 4 kts 181°
2026-05-08 01:11 -41.43376 -73.09598 301 ft 3 kts 181°
2026-05-08 01:12 -41.43440 -73.09600 301 ft 12 kts 181°
2026-05-08 01:12 -41.43514 -73.09603 303 ft 9 kts 181°
2026-05-08 01:12 -41.43564 -73.09604 301 ft 4 kts 181°
2026-05-08 01:12 -41.43612 -73.09606 302 ft 13 kts 182°
2026-05-08 01:13 -41.43717 -73.09611 303 ft 15 kts 182°
2026-05-08 01:13 -41.43814 -73.09614 302 ft 13 kts 181°
2026-05-08 01:13 -41.43901 -73.09618 304 ft 12 kts 181°
2026-05-08 01:13 -41.43980 -73.09621 301 ft 11 kts 181°
2026-05-08 01:14 -41.44049 -73.09623 300 ft 9 kts 181°
2026-05-08 01:14 -41.44140 -73.09626 300 ft 20 kts 181°
2026-05-08 01:14 -41.44288 -73.09632 301 ft 21 kts 181°
2026-05-08 01:14 -41.44430 -73.09636 301 ft 20 kts 181°
2026-05-08 01:15 -41.44559 -73.09641 301 ft 18 kts 181°
2026-05-08 01:15 -41.44678 -73.09645 302 ft 16 kts 181°
2026-05-08 01:15 -41.44784 -73.09649 301 ft 14 kts 181°
2026-05-08 01:15 -41.44877 -73.09652 303 ft 12 kts 181°
2026-05-08 01:16 -41.44957 -73.09655 302 ft 11 kts 182°
2026-05-08 01:16 -41.45028 -73.09655 302 ft 12 kts 171°
2026-05-08 01:16 -41.45068 -73.09570 308 ft 10 kts 92°
2026-05-08 01:16 -41.45069 -73.09514 309 ft 3 kts 88°
2026-05-08 01:17 -41.45054 -73.09456 310 ft 9 kts 53°
2026-05-08 01:17 -41.44990 -73.09435 310 ft 13 kts
2026-05-08 01:17 -41.44733 -73.09425 298 ft 73 kts
2026-05-08 01:17 -41.44004 -73.09399 291 ft 132 kts
2026-05-08 01:18 -41.42975 -73.09366 581 ft 152 kts
2026-05-08 01:18 -41.41927 -73.09329 1309 ft 150 kts
2026-05-08 01:18 -41.40862 -73.09291 1812 ft 160 kts
2026-05-08 01:18 -41.39681 -73.09247 2010 ft 180 kts
2026-05-08 01:19 -41.38363 -73.09199 2159 ft 198 kts
2026-05-08 01:19 -41.36923 -73.09148 2314 ft 218 kts
2026-05-08 01:19 -41.35314 -73.09090 2634 ft 240 kts
2026-05-08 01:19 -41.33644 -73.09032 3413 ft 246 kts
2026-05-08 01:20 -41.31909 -73.08972 4148 ft 253 kts 359°
2026-05-08 01:20 -41.30115 -73.08913 4869 ft 262 kts 359°
2026-05-08 01:20 -41.28266 -73.08852 5602 ft 269 kts 357°
2026-05-08 01:20 -41.26384 -73.08785 6405 ft 273 kts 358°
2026-05-08 01:21 -41.24473 -73.08461 7151 ft 280 kts
2026-05-08 01:21 -41.22532 -73.08042 7838 ft 286 kts
2026-05-08 01:21 -41.20545 -73.07610 8497 ft 293 kts
2026-05-08 01:21 -41.18509 -73.07167 9154 ft 300 kts
2026-05-08 01:22 -41.17108 -73.06862 9597 ft 304 kts
2026-05-08 01:22 -41.14997 -73.06405 10212 ft 312 kts
2026-05-08 01:22 -41.12819 -73.05939 10468 ft 332 kts
2026-05-08 01:22 -41.10456 -73.05440 10610 ft 355 kts
2026-05-08 01:23 -41.07940 -73.04906 10743 ft 377 kts
2026-05-08 01:23 -41.05281 -73.04339 10877 ft 397 kts
2026-05-08 01:23 -41.02519 -73.03742 11291 ft 406 kts
2026-05-08 01:23 -40.99709 -73.03125 11837 ft 412 kts
2026-05-08 01:24 -40.96860 -73.02502 12390 ft 418 kts
2026-05-08 01:24 -40.93973 -73.01877 12945 ft 423 kts
2026-05-08 01:24 -40.91049 -73.01251 13462 ft 429 kts
2026-05-08 01:24 -40.88087 -73.00623 13981 ft 434 kts
2026-05-08 01:25 -40.85086 -72.99986 14444 ft 439 kts
2026-05-08 01:25 -40.82050 -72.99341 14907 ft 444 kts
2026-05-08 01:25 -40.78978 -72.98687 15360 ft 449 kts
2026-05-08 01:25 -40.75877 -72.98028 15811 ft 453 kts
2026-05-08 01:26 -40.72744 -72.97362 16252 ft 458 kts
2026-05-08 01:26 -40.69574 -72.96686 16678 ft 463 kts
2026-05-08 01:26 -40.66420 -72.96015 17101 ft 468 kts
2026-05-08 01:26 -40.63192 -72.95327 17534 ft 472 kts
2026-05-08 01:27 -40.59929 -72.94632 18000 ft 477 kts
2026-05-08 01:27 -40.56641 -72.93935 18437 ft 481 kts
2026-05-08 01:27 -40.53320 -72.93238 18809 ft 485 kts
2026-05-08 01:27 -40.49974 -72.92536 19193 ft 489 kts
2026-05-08 01:28 -40.46607 -72.91827 19565 ft 492 kts
2026-05-08 01:28 -40.43211 -72.91110 19951 ft 496 kts
2026-05-08 01:28 -40.39793 -72.90388 20342 ft 499 kts
2026-05-08 01:28 -40.36350 -72.89660 20727 ft 502 kts
2026-05-08 01:29 -40.32890 -72.88938 21100 ft 505 kts
2026-05-08 01:29 -40.29400 -72.88284 21468 ft 508 kts
2026-05-08 01:29 -40.25884 -72.87701 21809 ft 511 kts
2026-05-08 01:29 -40.22334 -72.87160 22142 ft 515 kts
2026-05-08 01:30 -40.18759 -72.86630 22484 ft 519 kts
2026-05-08 01:30 -40.15157 -72.86088 22830 ft 523 kts
2026-05-08 01:30 -40.11536 -72.85522 23186 ft 526 kts
2026-05-08 01:30 -40.07889 -72.84930 23520 ft 530 kts
2026-05-08 01:31 -40.04219 -72.84320 23826 ft 533 kts
2026-05-08 01:31 -40.00525 -72.83703 24068 ft 538 kts
2026-05-08 01:31 -39.96801 -72.83088 24321 ft 541 kts
2026-05-08 01:31 -39.93050 -72.82476 24578 ft 545 kts
2026-05-08 01:32 -39.89276 -72.81865 24817 ft 548 kts
2026-05-08 01:32 -39.85476 -72.81257 25048 ft 552 kts
2026-05-08 01:32 -39.81655 -72.80645 25292 ft 555 kts
2026-05-08 01:32 -39.77810 -72.80025 25544 ft 559 kts
2026-05-08 01:33 -39.73942 -72.79398 25786 ft 562 kts
2026-05-08 01:33 -39.70046 -72.78765 26026 ft 566 kts
2026-05-08 01:33 -39.66132 -72.78098 26279 ft 569 kts
2026-05-08 01:33 -39.62197 -72.77385 26525 ft 573 kts
2026-05-08 01:34 -39.58236 -72.76640 26712 ft 577 kts
2026-05-08 01:34 -39.54265 -72.75882 27043 ft 577 kts
2026-05-08 01:34 -39.50285 -72.75128 27355 ft 578 kts
2026-05-08 01:34 -39.46298 -72.74389 27643 ft 579 kts
2026-05-08 01:35 -39.42351 -72.73674 27950 ft 581 kts
2026-05-08 01:35 -39.38345 -72.72961 28240 ft 582 kts
2026-05-08 01:35 -39.34326 -72.72250 28525 ft 583 kts
2026-05-08 01:35 -39.30302 -72.71534 28856 ft 584 kts
2026-05-08 01:36 -39.26279 -72.70812 29188 ft 585 kts
2026-05-08 01:36 -39.22248 -72.70082 29472 ft 586 kts
2026-05-08 01:36 -39.18205 -72.69348 29748 ft 587 kts
2026-05-08 01:36 -39.14155 -72.68616 29974 ft 588 kts
2026-05-08 01:37 -39.10096 -72.67884 30266 ft 589 kts
2026-05-08 01:37 -39.06031 -72.67150 30545 ft 589 kts
2026-05-08 01:37 -39.01970 -72.66417 30815 ft 590 kts
2026-05-08 01:37 -38.97906 -72.65683 31076 ft 590 kts
2026-05-08 01:38 -38.93830 -72.64947 31317 ft 591 kts
2026-05-08 01:38 -38.89760 -72.64190 31588 ft 592 kts
2026-05-08 01:38 -38.85698 -72.63276 31858 ft 594 kts
2026-05-08 01:38 -38.81650 -72.62176 32130 ft 596 kts
2026-05-08 01:39 -38.77615 -72.60939 32407 ft 597 kts 10°
2026-05-08 01:39 -38.73585 -72.59645 32732 ft 597 kts 11°
2026-05-08 01:39 -38.69566 -72.58365 33053 ft 595 kts 11°
2026-05-08 01:39 -38.65538 -72.57133 33382 ft 593 kts 10°
2026-05-08 01:40 -38.61516 -72.55967 33702 ft 593 kts
2026-05-08 01:40 -38.57490 -72.54847 33991 ft 592 kts
2026-05-08 01:40 -38.53460 -72.53746 34260 ft 592 kts
2026-05-08 01:40 -38.49428 -72.52645 34514 ft 592 kts
2026-05-08 01:41 -38.45405 -72.51532 34731 ft 591 kts
2026-05-08 01:41 -38.41384 -72.50404 35002 ft 590 kts
2026-05-08 01:41 -38.37384 -72.49269 35294 ft 588 kts
2026-05-08 01:41 -38.33445 -72.48149 35598 ft 586 kts
2026-05-08 01:42 -38.29464 -72.47016 35898 ft 584 kts
2026-05-08 01:42 -38.25507 -72.45893 36184 ft 582 kts
2026-05-08 01:42 -38.21554 -72.44779 36293 ft 581 kts
2026-05-08 01:43 -38.13678 -72.42575 36331 ft 579 kts
2026-05-08 01:43 -38.05810 -72.40383 36331 ft 579 kts
2026-05-08 01:44 -37.97941 -72.38201 36349 ft 578 kts
2026-05-08 01:44 -37.90080 -72.36017 36342 ft 578 kts
2026-05-08 01:45 -37.82216 -72.33826 36346 ft 578 kts
2026-05-08 01:45 -37.74404 -72.31660 36319 ft 578 kts
2026-05-08 01:46 -37.66539 -72.29489 36338 ft 577 kts
2026-05-08 01:46 -37.58705 -72.27260 36346 ft 578 kts
2026-05-08 01:47 -37.50885 -72.24836 36392 ft 578 kts 10°
2026-05-08 01:47 -37.43077 -72.22373 36374 ft 578 kts 10°
2026-05-08 01:48 -37.31406 -72.18811 36366 ft 577 kts
2026-05-08 01:48 -37.23596 -72.16472 36341 ft 577 kts
2026-05-08 01:49 -37.15780 -72.14124 36341 ft 577 kts
2026-05-08 01:49 -37.07975 -72.11765 36345 ft 577 kts
2026-05-08 01:50 -37.00156 -72.09403 36331 ft 577 kts
2026-05-08 01:50 -36.92351 -72.07044 36349 ft 577 kts
2026-05-08 01:51 -36.84548 -72.04704 36356 ft 576 kts
2026-05-08 01:51 -36.76749 -72.02376 36335 ft 576 kts
2026-05-08 01:52 -36.69012 -72.00062 36354 ft 575 kts
2026-05-08 01:52 -36.61225 -71.97739 36358 ft 575 kts
2026-05-08 01:53 -36.53447 -71.95425 36335 ft 575 kts
2026-05-08 01:53 -36.45660 -71.93111 36345 ft 574 kts
2026-05-08 01:54 -36.37882 -71.90808 36416 ft 574 kts
2026-05-08 01:54 -36.30096 -71.88510 36306 ft 575 kts
2026-05-08 01:55 -36.22315 -71.86214 36316 ft 576 kts
2026-05-08 01:55 -36.14503 -71.83913 36323 ft 577 kts
2026-05-08 01:56 -36.06689 -71.81625 36279 ft 577 kts
2026-05-08 01:56 -35.98933 -71.79355 36345 ft 577 kts
2026-05-08 01:57 -35.91128 -71.77068 36356 ft 576 kts
2026-05-08 01:57 -35.83325 -71.74794 36357 ft 576 kts
2026-05-08 01:58 -35.75533 -71.72526 36346 ft 575 kts
2026-05-08 01:58 -35.67752 -71.70258 36354 ft 574 kts
2026-05-08 01:59 -35.59976 -71.67989 36354 ft 574 kts
2026-05-08 01:59 -35.52209 -71.65739 36329 ft 573 kts
2026-05-08 02:00 -35.44449 -71.63497 36344 ft 572 kts
2026-05-08 02:00 -35.36742 -71.61276 36345 ft 572 kts
2026-05-08 02:01 -35.28996 -71.59046 36330 ft 572 kts
2026-05-08 02:01 -35.21252 -71.56816 36341 ft 571 kts
2026-05-08 02:02 -35.13509 -71.54595 36336 ft 571 kts
2026-05-08 02:02 -35.05770 -71.52366 36331 ft 571 kts
2026-05-08 02:03 -35.01897 -71.51254 36140 ft 572 kts
2026-05-08 02:03 -34.98025 -71.50149 35888 ft 572 kts
2026-05-08 02:03 -34.94144 -71.49046 35637 ft 572 kts
2026-05-08 02:03 -34.90262 -71.47948 35419 ft 573 kts
2026-05-08 02:04 -34.86378 -71.46850 35178 ft 574 kts
2026-05-08 02:04 -34.82487 -71.45742 34938 ft 574 kts
2026-05-08 02:04 -34.78592 -71.44629 34653 ft 573 kts
2026-05-08 02:04 -34.74711 -71.43518 34422 ft 572 kts
2026-05-08 02:05 -34.70838 -71.42414 34164 ft 572 kts
2026-05-08 02:05 -34.66963 -71.41304 33892 ft 572 kts 11°
2026-05-08 02:05 -34.63155 -71.39843 33631 ft 576 kts 19°
2026-05-08 02:05 -34.59435 -71.38019 33373 ft 576 kts 20°
2026-05-08 02:06 -34.55715 -71.36185 33112 ft 576 kts 20°
2026-05-08 02:06 -34.52001 -71.34355 32766 ft 576 kts 20°
2026-05-08 02:06 -34.48273 -71.32518 31678 ft 583 kts 21°
2026-05-08 02:06 -34.44506 -71.30660 30851 ft 585 kts 21°
2026-05-08 02:07 -34.40723 -71.28794 29732 ft 589 kts 21°
2026-05-08 02:07 -34.36928 -71.26925 28776 ft 588 kts 21°
2026-05-08 02:07 -34.33180 -71.25088 27817 ft 587 kts 20°
2026-05-08 02:07 -34.29409 -71.23241 26937 ft 584 kts 20°
2026-05-08 02:08 -34.25650 -71.21404 25918 ft 583 kts 20°
2026-05-08 02:08 -34.21893 -71.19577 24942 ft 581 kts 20°
2026-05-08 02:08 -34.18149 -71.17757 24005 ft 578 kts 19°
2026-05-08 02:08 -34.14449 -71.15954 23337 ft 568 kts 19°
2026-05-08 02:09 -34.10819 -71.14179 22461 ft 556 kts 19°
2026-05-08 02:09 -34.07264 -71.12441 21554 ft 543 kts 20°
2026-05-08 02:09 -34.03824 -71.10762 20134 ft 526 kts 20°
2026-05-08 02:09 -34.00476 -71.09133 18836 ft 511 kts 20°
2026-05-08 02:10 -33.98323 -71.08088 18300 ft 494 kts 20°
2026-05-08 02:10 -33.95233 -71.06590 18072 ft 471 kts 20°
2026-05-08 02:10 -33.91169 -71.04627 17206 ft 469 kts 20°
2026-05-08 02:10 -33.89167 -71.03662 16793 ft 467 kts 20°
2026-05-08 02:11 -33.86166 -71.02214 16176 ft 461 kts 20°
2026-05-08 02:11 -33.83208 -71.00785 15570 ft 455 kts 20°
2026-05-08 02:11 -33.80282 -70.99371 14992 ft 450 kts 20°
2026-05-08 02:11 -33.77391 -70.97973 14448 ft 446 kts 21°
2026-05-08 02:12 -33.74535 -70.96593 13854 ft 438 kts 21°
2026-05-08 02:12 -33.71732 -70.95241 13292 ft 431 kts 21°
2026-05-08 02:12 -33.68971 -70.93909 12766 ft 424 kts 21°
2026-05-08 02:12 -33.66250 -70.92597 12231 ft 418 kts 21°
2026-05-08 02:13 -33.63605 -70.91322 11719 ft 412 kts 21°
2026-05-08 02:13 -33.60955 -70.90048 11552 ft 397 kts 21°
2026-05-08 02:13 -33.58472 -70.88859 11426 ft 382 kts 21°
2026-05-08 02:13 -33.56103 -70.87566 11302 ft 367 kts 29°
2026-05-08 02:14 -33.53966 -70.86012 11188 ft 353 kts 32°
2026-05-08 02:14 -33.51916 -70.84498 11055 ft 337 kts 32°
2026-05-08 02:14 -33.49970 -70.83067 10939 ft 321 kts 32°
2026-05-08 02:14 -33.48100 -70.81694 10794 ft 310 kts 32°
2026-05-08 02:15 -33.46184 -70.80566 10508 ft 305 kts 18°
2026-05-08 02:15 -33.44097 -70.80139 10131 ft 304 kts 359°
2026-05-08 02:15 -33.42035 -70.80458 9933 ft 297 kts 343°
2026-05-08 02:15 -33.40143 -70.81436 9539 ft 296 kts 326°
2026-05-08 02:16 -33.38448 -70.82811 9182 ft 293 kts 324°
2026-05-08 02:16 -33.36776 -70.84169 8829 ft 287 kts 324°
2026-05-08 02:16 -33.35153 -70.85476 8501 ft 276 kts 324°
2026-05-08 02:16 -33.33599 -70.86724 8186 ft 262 kts 325°
2026-05-08 02:17 -33.32124 -70.87904 7920 ft 250 kts 325°
2026-05-08 02:17 -33.30709 -70.89039 7620 ft 240 kts 324°
2026-05-08 02:17 -33.29341 -70.90139 7364 ft 236 kts 324°
2026-05-08 02:17 -33.27993 -70.91226 7089 ft 230 kts 324°
2026-05-08 02:18 -33.26705 -70.92263 6853 ft 216 kts 324°
2026-05-08 02:18 -33.25395 -70.93047 6605 ft 206 kts 341°
2026-05-08 02:18 -33.24035 -70.93294 6382 ft 196 kts 359°
2026-05-08 02:18 -33.22721 -70.93050 6173 ft 188 kts 17°
2026-05-08 02:19 -33.21569 -70.92389 5984 ft 181 kts 35°
2026-05-08 02:19 -33.20648 -70.91402 5793 ft 177 kts 51°
2026-05-08 02:19 -33.19992 -70.90179 5596 ft 174 kts 68°
2026-05-08 02:19 -33.19634 -70.88811 5393 ft 172 kts 83°
2026-05-08 02:20 -33.19591 -70.87405 5209 ft 168 kts 97°
2026-05-08 02:20 -33.19846 -70.86063 5016 ft 165 kts 111°
2026-05-08 02:20 -33.20364 -70.84845 4821 ft 164 kts 123°
2026-05-08 02:20 -33.21053 -70.83764 4631 ft 163 kts 133°
2026-05-08 02:21 -33.21876 -70.82837 4417 ft 163 kts 142°
2026-05-08 02:21 -33.22814 -70.82091 4235 ft 162 kts 152°
2026-05-08 02:21 -33.23839 -70.81542 4044 ft 162 kts 161°
2026-05-08 02:21 -33.24922 -70.81201 3884 ft 162 kts 169°
2026-05-08 02:22 -33.26037 -70.81064 3675 ft 161 kts 175°
2026-05-08 02:22 -33.27112 -70.80974 3465 ft 151 kts 175°
2026-05-08 02:22 -33.28146 -70.80885 3266 ft 148 kts 175°
2026-05-08 02:22 -33.29167 -70.80800 3070 ft 147 kts 176°
2026-05-08 02:23 -33.30186 -70.80728 2880 ft 146 kts 177°
2026-05-08 02:23 -33.31202 -70.80674 2685 ft 146 kts 177°
2026-05-08 02:23 -33.32198 -70.80624 2495 ft 145 kts 177°
2026-05-08 02:23 -33.33202 -70.80575 2307 ft 144 kts 177°
2026-05-08 02:24 -33.34197 -70.80524 2118 ft 142 kts 176°
2026-05-08 02:24 -33.35182 -70.80463 1938 ft 141 kts 176°
2026-05-08 02:24 -33.36158 -70.80416 1781 ft 140 kts 177°
2026-05-08 02:24 -33.37125 -70.80372 1625 ft 139 kts 176°
2026-05-08 02:25 -33.38034 -70.80328 1571 ft 110 kts 177°
2026-05-08 02:25 -33.38600 -70.80298 1574 ft 56 kts 177°
2026-05-08 02:25 -33.38913 -70.80281 1574 ft 42 kts 178°
2026-05-08 02:25 -33.39186 -70.80266 1573 ft 34 kts 177°
2026-05-08 02:26 -33.39325 -70.80206 1572 ft 9 kts 148°
2026-05-08 02:26 -33.39375 -70.80169 1570 ft 9 kts 149°
2026-05-08 02:26 -33.39434 -70.80126 1568 ft 11 kts 147°
2026-05-08 02:26 -33.39495 -70.80070 1566 ft 11 kts 134°
2026-05-08 02:27 -33.39529 -70.79986 1565 ft 11 kts 98°
2026-05-08 02:27 -33.39529 -70.79894 1565 ft 11 kts 88°
2026-05-08 02:27 -33.39526 -70.79807 1565 ft 10 kts 88°
2026-05-08 02:27 -33.39523 -70.79737 1565 ft 4 kts 87°
2026-05-08 02:28 -33.39529 -70.79708 1565 ft 3 kts 123°
2026-05-08 02:28 -33.39545 -70.79702 1565 ft 5 kts 171°
2026-05-08 02:28 -33.39581 -70.79698 1565 ft 4 kts 177°
2026-05-08 02:28 -33.39597 -70.79697 1565 ft 1 kts 177°
2026-05-08 02:29 -33.39601 -70.79697 1565 ft 0 kts 177°
2026-05-08 02:29 -33.39602 -70.79697 1565 ft 0 kts 177°
2026-05-08 02:29 -33.39603 -70.79697 1565 ft 0 kts 177°